User: anonymous   Login
Location: Unspecified
(0.0000°N, 0.0000°E)
Time: 11:07:48
(UTC+00:00)
Language:

APRIZESAT 3 - Orbit

View from above orbital plane
View from above orbital plane
View from above satellite
View from above satellite

Ground track
Ground track

The orbit data is extracted from the following two-line orbital elements,

1 35686U 09041F   14304.45132382  .00001336  00000-0  15407-3 0  6655
2 35686 098.1638 254.1576 0073910 252.9833 255.3569 14.85589264284604
Epoch (UTC): 31 October 2014 10:49:54
Eccentricity: 0.0073910
inclination: 98.1638°
perigee height: 560 km
apogee height: 663 km
right ascension of ascending node: 254.1576°
argument of perigee: 252.9833°
revolutions per day: 14.85589264
mean anomaly at epoch: 255.3569°
orbit number at epoch: 28460

The dashed part of the orbit path shows where the satellite is in the earth's shadow,  

DLR